Poplar Bluff, MO

4:26 AM CDT on July 17, 2019 (GMT -0500)
Poplar Bluff Municipal

Weather History for KPOF - May, 2019

Change the Weather History Date:

Monday, May 13, 2019

  Actual Average Record
Temperature  
Mean Temperature 57 °F -  
Max Temperature 68 °F 76 °F 90 °F (1934)
Min Temperature 46 °F 55 °F 39 °F (1960)
Degree Days  
Heating Degree Days 8    
Growing Degree Days 7 (Base 50)    
Moisture  
Dew Point 50 °F    
Average Humidity 78    
Maximum Humidity 100    
Minimum Humidity 52    
Precipitation  
Precipitation 0.00 in - - ()
Sea Level Pressure  
Sea Level Pressure 29.98 in    
Wind  
Wind Speed 4 mph (North)    
Max Wind Speed 9 mph    
Max Gust Speed -    
Visibility 10 miles    
Events      
Averages and records for this station are not official NWS values.
T = Trace of Precipitation, MM = Missing Value Source: NWS Daily Summary

Daily Weather History Graph

Daily Weather History Graph

Search for Another Location

Airport or City:

Astronomy

May. 13, 2019 Rise Set
Actual Time 5:55 AM CDT 8:00 PM CDT
Civil Twilight 5:26 AM CDT 8:28 PM CDT
Nautical Twilight 4:51 AM CDT 9:04 PM CDT
Astronomical Twilight 4:14 AM CDT 9:42 PM CDT
Moon 2:23 PM CDT (5/13) 3:01 AM CDT (5/13)
Length of Visible Light 15h 02m
Length of Day
14h 04m
Waxing Gibbous, 69% of the Moon is Illuminated
May 13
Waxing Gibbous
May 18
Full
May 26
Last Quarter
Jun 3
New
Jun 10
First Quarter

Hourly Weather History & Observations

Time (CDT) Temp. Dew Point Humidity Pressure Visibility Wind Dir Wind Speed Gust Speed Precip Events Conditions
12:53 AM 53.1 °F 53.1 °F 100% 29.88 in 10.0 mi NW 4.6 mph - N/A   Clear
1:53 AM 51.1 °F 51.1 °F 100% 29.88 in 10.0 mi NNW 4.6 mph - N/A   Clear
2:53 AM 50.0 °F 50.0 °F 100% 29.89 in 10.0 mi Calm Calm - N/A   Clear
3:53 AM 50.0 °F 50.0 °F 100% 29.90 in 10.0 mi Calm Calm - N/A   Clear
4:53 AM 48.0 °F 48.0 °F 100% 29.92 in 10.0 mi NNW 3.5 mph - N/A   Clear
5:53 AM 46.9 °F 46.9 °F 100% 29.94 in 10.0 mi NNW 3.5 mph - N/A   Clear
6:53 AM 48.9 °F 48.9 °F 100% 29.96 in 9.0 mi North 3.5 mph - N/A   Clear
7:53 AM 53.1 °F 50.0 °F 89% 29.98 in 10.0 mi NNE 4.6 mph - N/A   Clear
8:53 AM 55.9 °F 50.0 °F 80% 30.00 in 10.0 mi NE 6.9 mph - N/A   Clear
9:39 AM 57.0 °F 51.1 °F 81% 30.01 in 10.0 mi ENE 5.8 mph - N/A   Mostly Cloudy
9:53 AM 57.0 °F 50.0 °F 77% 30.01 in 10.0 mi NNW 3.5 mph - N/A   Overcast
10:21 AM 57.0 °F 48.9 °F 74% 30.02 in 10.0 mi Calm Calm - N/A   Overcast
10:48 AM 57.2 °F 51.8 °F 82% 30.02 in 10.0 mi WNW 4.6 mph - N/A   Overcast
10:53 AM 57.0 °F 51.1 °F 81% 30.02 in 10.0 mi WNW 4.6 mph - N/A   Overcast
11:27 AM 60.1 °F 51.1 °F 72% 30.01 in 10.0 mi Variable 4.6 mph - N/A   Overcast
11:53 AM 60.1 °F 48.9 °F 67% 30.01 in 10.0 mi West 5.8 mph - N/A   Mostly Cloudy
12:53 PM 63.0 °F 51.1 °F 65% 30.00 in 10.0 mi Variable 4.6 mph - N/A   Overcast
1:53 PM 64.9 °F 50.0 °F 58% 29.99 in 10.0 mi NW 8.1 mph - N/A   Partly Cloudy
2:53 PM 64.9 °F 48.9 °F 56% 29.98 in 10.0 mi North 4.6 mph - N/A   Overcast
3:53 PM 66.9 °F 48.9 °F 52% 29.97 in 10.0 mi NNW 9.2 mph - N/A   Partly Cloudy
4:53 PM 68.0 °F 50.0 °F 52% 29.97 in 10.0 mi NNW 8.1 mph - N/A   Mostly Cloudy
5:53 PM 66.0 °F 48.0 °F 52% 29.98 in 10.0 mi NNE 4.6 mph - N/A   Scattered Clouds
6:53 PM 66.0 °F 48.0 °F 52% 29.98 in 10.0 mi East 4.6 mph - N/A   Mostly Cloudy
7:53 PM 62.1 °F 50.0 °F 65% 29.99 in 10.0 mi East 4.6 mph - N/A   Clear
8:53 PM 59.0 °F 50.0 °F 72% 30.00 in 10.0 mi East 4.6 mph - N/A   Clear
9:53 PM 57.0 °F 50.0 °F 77% 30.03 in 10.0 mi East 4.6 mph - N/A   Clear
10:53 PM 55.0 °F 48.9 °F 80% 30.04 in 10.0 mi East 3.5 mph - N/A   Clear
11:53 PM 52.0 °F 51.1 °F 97% 30.04 in 10.0 mi Calm Calm - N/A   Clear